Temp
12 12 13 14 14 14 14 15 15 15 15 14 14 14 14 14 13 13 12 12 12 11 11 10 9 9 8 8 7 7 5 5 4 4 4 5 5 5 4 4 3 3 2 2
13 13 14 14 14 14 14 14 14 15 14 14 14 14 14 13 13 13 12 12 12 11 10 10 9 9 8 8 7 7 5 5 4 4 4 4 4 3 3 3 3 2 2 2
13 14 13 13 13 14 14 14 13 14 14 13 13 13 13 14 13 12 12 11 11 11 10 9 9 8 7 6 5 5 5 5 4 4 4 3 3 3 3 3 2 2 1 0
13 13 13 13 13 13 13 13 13 13 13 12 13 12 13 13 13 12 11 11 11 10 9 8 7 7 7 6 4 4 4 4 4 5 4 4 4 3 2 2 1 1 0 0
12 12 13 13 12 12 12 12 12 12 12 12 12 11 11 11 11 10 9 10 9 9 8 8 7 7 6 4 3 3 3 2 3 1 1 1 1 1 3 1 0 0 0 -0
12 13 13 12 12 12 12 12 12 11 11 10 10 8 9 8 8 8 6 8 8 8 8 7 6 5 5 3 3 2 2 2 1 1 0 1 1 2 1 1 0 -1 -1 -1
12 12 12 12 11 12 11 11 10 8 8 8 11 9 9 7 6 6 6 6 7 6 6 5 4 3 3 3 3 3 2 1 0 -0 0 2 1 1 0 -1 -1 -2 -1 -1
11 11 11 11 11 11 11 11 10 8 7 9 9 8 8 8 8 7 7 7 6 6 5 4 4 4 3 3 2 0 0 1 2 0 -0 -0 0 -1 -2 -3 -3 -2 -2 -3
10 10 11 11 11 10 10 11 10 10 10 10 9 8 7 7 7 8 7 6 6 5 5 4 4 3 2 2 2 2 1 1 0 -1 0 -1 -1 -2 -2 -2 -2 -2 -3 -3
10 9 10 10 10 10 10 10 10 9 5 6 8 6 6 5 6 6 5 5 5 4 4 3 3 3 2 2 2 2 1 0 0 -1 -1 -1 -2 -2 -2 -2 -3 -3 -3 -3
8 8 9 9 9 9 9 9 8 7 9 6 5 7 7 6 6 6 5 4 4 3 3 3 2 2 2 2 1 1 0 -0 -0 -1 -1 -1 -2 -2 -2 -4 -4 -4 -3 -3
8 8 8 8 9 9 8 8 8 8 8 8 7 6 6 5 5 4 4 3 3 3 2 2 2 2 2 2 1 1 -0 -0 -0 -1 -2 -3 -3 -4 -4 -5 -4 -4 -4 -4
7 7 7 8 8 8 8 8 8 8 8 7 6 6 6 5 5 4 1 3 2 2 2 2 2 2 2 1 0 -1 -0 -1 -1 -2 -3 -4 -4 -4 -5 -5 -4 -5 -5 -5
6 6 6 6 6 7 7 7 7 7 7 7 7 6 4 4 4 3 2 2 2 1 1 1 1 1 0 -0 -1 -0 -1 -2 -2 -3 -4 -5 -5 -5 -5 -5 -6 -6 -6 -6
5 5 5 5 6 6 7 7 7 8 7 7 7 5 2 1 2 2 2 2 1 1 1 1 -0 -0 -1 -1 -1 -2 -2 -3 -3 -4 -5 -5 -6 -6 -6 -6 -6 -6 -6 -5
5 5 5 5 5 5 6 6 7 7 7 7 5 3 2 2 2 2 2 1 1 1 1 0 -0 -0 -1 -1 -2 -3 -3 -4 -4 -5 -6 -6 -6 -6 -6 -6 -6 -6 -5 -5
6 5 4 4 5 5 5 6 6 6 5 5 4 2 2 2 2 1 2 2 1 1 -0 -0 -1 -1 -2 -3 -4 -4 -4 -4 -5 -6 -6 -6 -6 -6 -6 -6 -6 -6 -6 -6
5 4 4 4 4 2 5 5 5 5 3 3 3 2 1 1 0 1 0 0 0 -0 -1 -1 -2 -3 -4 -4 -4 -5 -5 -5 -6 -6 -6 -6 -6 -6 -6 -6 -6 -6 -6 -6
4 4 3 3 4 4 4 4 4 3 2 2 3 2 2 1 0 -0 -0 -0 -0 -1 -2 -3 -3 -4 -5 -4 -5 -6 -6 -6 -6 -6 -6 -6 -6 -6 -6 -6 -6 -6 -6 -6
4 4 3 3 3 4 2 2 1 1 1 0 1 1 0 -0 -1 -1 -1 -1 -2 -2 -3 -3 -4 -5 -5 -6 -6 -6 -6 -6 -6 -6 -6 -6 -6 -6 -6 -6 -6 -6 -6 -6
3 3 3 3 3 2 1 1 1 0 -0 -1 -1 -1 -1 -1 -2 -2 -3 -2 -3 -3 -4 -4 -5 -5 -5 -6 -6 -7 -6 -7 -7 -6 -6 -7 -6 -7 -6 -6 -6 -6 -6 -6
3 1 3 3 3 1 0 0 -1 -0 -1 -0 -1 -1 -1 -1 -2 -2 -3 -3 -3 -4 -4 -5 -5 -5 -5 -6 -6 -6 -6 -6 -7 -6 -7 -7 -8 -7 -6 -6 -6 -6 -6 -6
3 2 2 2 1 1 -0 -1 -1 -1 -1 -1 -1 -0 -1 -2 -2 -2 -2 -2 -3 -4 -5 -5 -5 -5 -5 -6 -6 -7 -7 -7 -7 -7 -7 -7 -7 -7 -6 -6 -6 -6 -7 -6
2 2 2 1 -0 -1 -1 -1 -1 -1 -1 -0 -1 -1 -1 -1 -1 -1 -2 -3 -4 -5 -5 -5 -6 -6 -6 -7 -7 -7 -6 -6 -6 -6 -7 -7 -6 -7 -7 -6 -6 -6 -6 -6
2 1 1 1 0 -1 -1 -1 -1 -1 -0 -1 -1 -0 -0 -0 -1 -2 -3 -4 -5 -5 -5 -6 -6 -6 -7 -7 -7 -7 -7 -7 -7 -6 -7 -7 -7 -7 -7 -7 -6 -6 -6 -6
1 1 1 1 0 -1 -1 -0 -1 -0 -1 -0 -0 -0 -0 -1 -2 -3 -4 -4 -5 -5 -6 -6 -7 -6 -6 -7 -8 -8 -8 -7 -8 -7 -8 -7 -7 -7 -7 -6 -6 -6 -6 -6
Height
3180 3182 3180 3180 3179 3179 3178 3177 3175 3172 3171 3174 3174 3176 3175 3176 3176 3175 3178 3180 3180 3177 3174 3171 3171 3171 3170 3171 3172 3173 3172 3169 3168 3166 3165 3164 3161 3157 3154 3149 3143 3138 3132 3126
3182 3178 3178 3179 3178 3177 3175 3174 3174 3174 3173 3174 3173 3174 3175 3174 3172 3171 3172 3173 3175 3172 3169 3168 3167 3167 3167 3167 3165 3166 3168 3165 3164 3161 3159 3157 3153 3150 3146 3141 3136 3130 3125 3118
3178 3179 3177 3177 3176 3175 3175 3175 3173 3174 3172 3172 3172 3172 3173 3173 3172 3168 3168 3169 3168 3169 3167 3166 3165 3164 3163 3162 3160 3161 3161 3159 3158 3158 3155 3151 3147 3144 3138 3134 3127 3119 3113 3107
3177 3178 3176 3176 3176 3175 3175 3172 3171 3170 3170 3171 3171 3166 3170 3166 3165 3166 3165 3165 3164 3165 3164 3164 3163 3162 3158 3157 3157 3155 3153 3150 3149 3149 3145 3140 3137 3133 3129 3125 3116 3109 3103 3097
3177 3176 3174 3175 3175 3173 3172 3170 3170 3169 3168 3168 3169 3166 3165 3167 3164 3163 3169 3163 3166 3167 3166 3163 3161 3160 3159 3157 3152 3148 3145 3142 3139 3137 3133 3130 3126 3124 3120 3114 3106 3100 3095 3088
3176 3175 3174 3174 3172 3172 3171 3169 3167 3167 3167 3167 3169 3169 3164 3167 3166 3162 3162 3166 3167 3166 3164 3162 3161 3161 3159 3155 3151 3146 3141 3136 3135 3131 3126 3122 3119 3116 3113 3106 3100 3093 3085 3078
3174 3173 3170 3172 3173 3172 3171 3170 3168 3169 3167 3166 3165 3167 3169 3167 3165 3160 3162 3161 3160 3162 3162 3162 3161 3159 3156 3153 3151 3146 3141 3136 3132 3124 3121 3113 3109 3105 3102 3096 3089 3083 3075 3068
3174 3174 3173 3173 3173 3172 3171 3171 3169 3171 3170 3167 3165 3165 3171 3171 3170 3165 3164 3162 3162 3164 3164 3163 3162 3159 3156 3153 3148 3142 3135 3129 3126 3120 3111 3106 3102 3098 3091 3085 3080 3074 3066 3059
3173 3172 3173 3172 3171 3171 3171 3169 3169 3166 3165 3165 3165 3167 3168 3169 3167 3167 3164 3164 3163 3164 3163 3161 3158 3154 3150 3146 3140 3135 3129 3125 3119 3112 3107 3102 3097 3092 3085 3078 3071 3065 3058 3052
3172 3169 3169 3170 3170 3169 3169 3168 3166 3166 3168 3169 3165 3167 3169 3165 3166 3166 3164 3163 3163 3162 3159 3155 3150 3146 3142 3138 3134 3130 3125 3119 3113 3105 3100 3095 3089 3082 3076 3071 3063 3057 3051 3047
3170 3170 3168 3167 3168 3167 3167 3165 3166 3168 3167 3166 3167 3166 3164 3164 3164 3163 3163 3162 3160 3159 3155 3151 3145 3141 3138 3134 3129 3124 3119 3113 3105 3097 3090 3084 3078 3072 3067 3061 3055 3051 3046 3041
3169 3167 3166 3166 3165 3163 3164 3165 3167 3165 3165 3163 3165 3165 3163 3161 3161 3160 3161 3160 3158 3153 3149 3145 3141 3137 3135 3132 3127 3120 3112 3105 3096 3087 3078 3072 3067 3062 3059 3054 3050 3046 3042 3038
3167 3166 3164 3163 3165 3163 3163 3164 3163 3161 3160 3161 3164 3164 3160 3158 3157 3157 3157 3156 3151 3144 3141 3139 3136 3133 3129 3124 3117 3110 3102 3091 3079 3070 3065 3061 3057 3055 3052 3050 3046 3044 3041 3038
3165 3164 3165 3166 3165 3164 3162 3160 3159 3159 3158 3156 3157 3159 3157 3153 3152 3150 3151 3148 3145 3141 3136 3134 3131 3127 3122 3115 3107 3098 3089 3079 3069 3062 3058 3056 3054 3052 3050 3047 3045 3042 3040 3038
3162 3162 3162 3161 3160 3160 3159 3157 3156 3155 3153 3154 3151 3152 3153 3149 3150 3146 3144 3143 3143 3139 3134 3129 3125 3118 3111 3105 3097 3087 3079 3071 3067 3062 3059 3056 3054 3052 3050 3047 3044 3042 3039 3036
3160 3159 3158 3157 3157 3155 3154 3153 3152 3150 3148 3151 3147 3149 3150 3149 3144 3142 3139 3138 3134 3130 3126 3121 3116 3109 3102 3094 3086 3080 3074 3070 3066 3061 3059 3057 3055 3053 3049 3046 3044 3041 3038 3035
3158 3157 3156 3152 3154 3152 3151 3151 3151 3147 3146 3145 3146 3148 3145 3142 3139 3136 3131 3131 3128 3125 3121 3116 3109 3101 3093 3086 3081 3077 3073 3069 3066 3063 3061 3058 3055 3052 3050 3047 3043 3040 3037 3035
3154 3154 3154 3151 3151 3152 3150 3147 3146 3144 3145 3145 3145 3144 3142 3139 3136 3131 3126 3123 3122 3119 3114 3109 3101 3093 3088 3083 3078 3075 3072 3068 3066 3063 3060 3058 3055 3053 3050 3047 3044 3041 3038 3036
3151 3152 3152 3151 3150 3149 3147 3146 3145 3143 3144 3144 3143 3141 3139 3139 3136 3126 3121 3118 3115 3111 3106 3099 3091 3087 3084 3080 3077 3074 3072 3069 3066 3063 3061 3058 3055 3053 3050 3047 3044 3041 3039 3036
3149 3149 3151 3149 3149 3147 3147 3145 3145 3144 3145 3143 3141 3138 3136 3133 3129 3123 3118 3113 3110 3106 3101 3094 3089 3085 3082 3078 3076 3074 3071 3068 3066 3064 3061 3058 3055 3052 3049 3047 3044 3041 3038 3035
3146 3146 3146 3146 3147 3145 3141 3143 3143 3143 3147 3141 3137 3134 3132 3130 3124 3119 3113 3107 3104 3101 3095 3090 3087 3084 3080 3077 3075 3073 3070 3068 3066 3063 3060 3057 3055 3052 3050 3047 3045 3040 3037 3033
3144 3145 3144 3144 3143 3143 3139 3138 3143 3145 3140 3136 3134 3131 3129 3127 3122 3117 3112 3104 3098 3093 3089 3087 3085 3082 3079 3077 3075 3073 3070 3068 3066 3062 3059 3056 3054 3051 3049 3047 3043 3039 3034 3031
3143 3145 3144 3145 3143 3140 3137 3137 3138 3138 3136 3132 3130 3128 3126 3122 3117 3110 3104 3098 3093 3090 3088 3086 3084 3082 3079 3077 3075 3074 3072 3069 3066 3062 3058 3056 3053 3051 3048 3045 3042 3038 3034 3030
3142 3142 3143 3143 3141 3139 3139 3137 3136 3134 3133 3129 3127 3125 3121 3116 3110 3104 3099 3094 3091 3089 3087 3086 3085 3083 3080 3078 3076 3072 3069 3066 3063 3060 3056 3054 3053 3050 3047 3044 3041 3037 3034 3029
3142 3141 3141 3142 3141 3139 3138 3135 3135 3134 3132 3129 3124 3121 3116 3110 3105 3100 3096 3093 3091 3090 3088 3088 3086 3083 3081 3078 3075 3071 3068 3063 3060 3056 3053 3051 3050 3048 3045 3043 3041 3037 3033 3029
3138 3138 3139 3139 3138 3135 3134 3132 3130 3130 3128 3125 3121 3115 3111 3106 3102 3099 3096 3094 3093 3092 3092 3090 3088 3085 3082 3078 3074 3070 3068 3064 3060 3056 3054 3052 3049 3048 3045 3043 3039 3036 3034 3031
Wind_Speed
5 10 13 8 11 17 22 18 20 9 15 19 20 15 13 19 22 18 15 15 19 27 30 32 33 36 39 38 40 35 16 21 22 24 27 29 33 36 40 45 47 51 50 53
16 18 15 11 6 9 14 17 17 13 13 14 8 10 15 13 20 19 19 16 19 29 32 33 33 35 38 38 42 32 22 25 23 26 31 35 38 40 43 45 48 48 51 51
13 13 3 6 9 10 11 14 11 14 3 6 11 17 18 18 26 25 19 19 16 20 29 29 30 30 30 34 38 38 33 34 32 31 35 38 41 45 50 46 49 49 45 45
8 7 8 11 7 12 10 9 10 12 14 14 13 17 21 20 23 25 18 14 17 16 19 21 22 26 34 38 30 31 38 45 44 43 46 53 49 51 44 49 50 50 49 50
12 12 6 5 10 10 11 13 12 16 19 22 22 12 12 21 3 10 4 9 13 13 17 20 23 31 28 26 25 34 42 42 43 45 45 50 56 57 48 52 53 54 54 54
11 10 16 11 14 9 13 20 20 17 19 16 5 15 20 23 25 18 14 21 18 16 18 19 21 20 19 19 24 27 31 32 34 45 50 55 52 56 56 57 58 61 60 60
14 14 6 7 11 8 11 11 6 8 6 5 12 14 16 6 15 4 8 6 12 13 15 16 6 7 16 22 27 31 35 35 39 42 56 59 57 55 62 58 62 60 61 60
8 9 7 4 3 8 13 13 5 2 3 7 1 3 5 5 5 11 10 13 13 13 8 10 14 15 19 23 25 31 35 42 43 49 46 56 61 56 62 62 60 61 62 53
6 10 15 14 16 6 11 13 12 10 15 13 11 12 4 11 10 11 3 10 1 2 3 4 10 16 21 26 29 35 38 42 42 45 54 57 53 58 59 59 61 60 54 42
6 18 22 9 13 13 12 15 12 7 3 3 9 6 6 11 9 7 6 1 5 7 8 10 16 21 27 30 39 41 43 46 49 51 53 54 57 59 62 67 60 50 38 28
8 7 17 12 7 8 12 7 14 11 8 4 1 5 9 12 7 10 10 6 4 6 8 14 21 26 31 36 40 44 48 48 53 60 64 63 62 64 62 51 41 31 28 25
15 14 15 18 18 13 4 7 12 13 3 4 3 0 4 5 6 4 1 2 6 11 16 20 25 32 36 41 46 49 50 53 59 62 63 60 58 54 47 32 26 22 18 18
16 4 7 8 3 7 11 16 12 10 5 5 3 6 11 8 12 15 9 7 11 17 22 26 30 39 39 39 42 50 54 58 60 57 53 48 37 26 23 21 18 11 15 16
13 9 10 10 18 22 26 14 15 11 15 20 15 12 4 11 8 10 10 14 16 19 27 34 42 39 40 45 50 53 53 44 40 30 20 17 16 16 15 13 11 12 12 14
9 7 6 11 15 17 21 21 19 12 13 15 16 11 6 1 5 9 14 19 22 30 36 37 38 39 44 47 51 43 32 26 21 14 13 12 11 13 10 11 14 13 13 10
1 8 11 18 15 15 19 17 15 14 14 7 10 7 6 7 13 18 22 26 32 38 38 39 38 46 48 50 36 26 20 16 16 12 13 12 11 13 12 12 9 11 11 12
21 19 14 16 13 16 13 13 9 4 5 2 7 6 4 11 18 22 30 35 40 38 36 40 44 48 46 31 22 17 19 16 13 12 11 11 11 11 13 12 12 11 12 14
15 14 13 13 14 2 1 2 1 2 6 7 8 6 6 13 19 29 33 37 39 39 41 40 46 41 26 19 17 18 14 14 10 11 13 12 12 11 13 13 12 12 13 13
12 13 10 5 7 12 14 6 8 2 7 7 15 15 19 19 22 31 38 39 41 38 40 44 42 27 18 18 14 11 10 12 11 12 13 13 13 14 13 12 11 11 12 15
14 13 14 9 4 2 1 3 5 9 10 13 15 20 22 25 29 30 33 35 37 38 39 39 25 18 18 13 10 7 11 10 12 12 12 15 15 13 11 13 13 14 14 15
11 11 16 13 13 5 5 5 5 6 4 11 17 18 21 22 28 33 34 40 40 38 38 20 14 15 12 9 4 8 8 11 12 13 15 12 9 12 13 16 14 15 15 15
3 5 4 5 4 7 10 4 15 6 10 17 20 23 25 26 29 33 37 40 39 32 17 12 13 12 10 9 8 6 9 10 12 13 14 10 12 12 13 13 14 17 20 21
4 5 3 3 4 6 8 11 6 13 14 17 22 23 24 28 31 34 33 30 22 14 9 10 11 10 11 12 9 7 9 11 14 13 11 12 13 13 14 12 13 16 19 19
6 9 2 4 2 2 5 13 15 17 20 23 24 23 25 30 30 31 26 20 11 9 10 12 10 12 12 12 13 14 14 17 20 14 13 12 13 11 11 14 15 18 19 15
8 8 4 4 6 7 10 16 16 19 21 21 21 24 28 30 28 22 16 10 11 11 12 10 11 14 14 16 17 18 23 20 16 13 8 10 12 9 11 15 19 17 14 12
12 10 9 11 13 14 17 22 24 21 19 20 22 27 29 26 19 11 10 12 13 12 12 16 17 16 18 19 20 21 18 15 14 9 8 10 10 9 15 18 15 13 13 14
Wind_Direction
325 259 264 300 272 269 283 292 333 343 159 182 214 239 239 251 241 246 244 219 234 241 245 246 251 262 270 273 287 295 285 283 291 292 297 300 303 308 312 315 313 314 312 312
284 254 286 293 274 299 300 308 316 313 257 229 219 240 251 258 254 261 238 222 228 241 234 242 249 259 270 281 294 303 312 293 288 293 301 306 311 314 312 311 310 308 308 310
296 286 286 339 318 296 310 312 316 331 211 248 281 278 288 294 269 250 226 212 223 244 238 241 255 269 283 297 299 315 309 306 294 297 302 305 305 308 309 312 312 313 317 318
298 306 325 321 307 299 320 333 302 319 326 330 317 309 307 303 311 234 217 200 218 222 231 248 260 273 282 289 301 306 309 303 298 303 308 308 310 317 315 321 322 320 319 319
296 332 328 339 348 312 295 322 331 317 315 314 312 312 321 336 275 149 138 192 218 241 255 256 262 276 281 297 318 303 303 309 308 309 308 310 309 313 314 327 327 321 321 321
303 316 289 285 296 321 313 302 320 319 306 293 352 360 302 347 319 261 260 258 215 226 236 244 254 273 296 296 298 301 298 297 296 301 302 306 311 314 318 321 321 322 320 320
326 332 230 310 312 327 343 289 331 337 341 269 268 263 270 335 67 48 248 192 214 225 233 263 285 284 278 284 291 294 287 286 292 297 294 307 313 318 316 318 322 320 318 321
350 346 12 333 334 319 315 319 276 295 321 301 281 173 155 60 83 92 89 170 191 239 279 229 271 284 287 291 293 298 300 298 296 301 305 312 314 313 317 317 316 316 318 316
323 286 282 313 279 281 300 298 309 310 301 304 135 113 306 269 313 264 294 256 218 138 234 278 290 301 295 292 291 291 290 294 300 303 303 305 305 309 310 311 313 314 315 311
291 307 299 276 307 306 301 287 316 350 30 339 356 85 80 124 125 97 74 116 247 261 287 298 294 294 295 296 298 296 296 298 299 300 302 304 305 305 307 306 308 312 311 310
325 298 304 301 322 303 313 321 341 336 286 186 292 154 209 234 229 246 269 289 309 269 272 275 276 279 284 290 294 296 298 301 304 304 303 303 302 302 304 311 311 312 315 319
322 300 296 292 300 305 263 283 286 291 270 281 340 238 94 146 126 126 220 294 285 282 281 274 274 278 284 290 296 300 300 298 299 299 297 297 299 302 309 313 311 321 333 340
323 263 336 311 249 319 322 311 297 272 278 298 288 181 193 201 242 263 296 285 280 275 278 279 284 305 311 308 302 303 304 303 303 302 301 304 305 313 316 313 322 341 5 11
328 299 267 270 283 303 306 283 294 293 269 269 242 290 303 303 260 197 256 263 268 282 286 296 309 310 304 304 308 311 311 310 312 316 331 332 331 332 328 344 355 359 1 4
352 338 304 286 289 301 304 303 303 285 285 285 274 266 317 96 231 245 256 268 287 297 303 309 311 307 308 312 316 316 318 324 331 349 357 1 11 10 29 30 23 10 5 355
227 274 281 288 294 293 317 310 303 311 301 272 68 108 211 251 274 284 297 310 314 315 315 316 317 316 318 319 320 323 337 343 346 7 27 18 41 31 29 16 7 3 12 6
279 289 286 287 303 305 308 299 312 65 54 69 97 84 284 285 293 307 309 310 311 311 311 311 318 320 323 323 324 335 338 346 4 27 26 21 31 17 14 8 3 2 7 1
293 294 292 284 299 310 250 249 155 210 124 115 159 203 291 309 318 309 306 307 311 308 310 319 321 324 329 328 337 341 353 11 31 31 20 14 7 358 350 353 358 357 357 0
259 274 281 264 255 276 292 256 231 177 351 323 296 283 283 296 307 305 302 304 304 313 325 323 325 329 333 333 343 0 15 20 23 18 19 357 348 338 343 355 356 350 358 360
243 263 254 247 281 295 22 247 253 274 274 270 284 290 297 303 308 306 307 308 313 318 319 319 321 328 336 346 349 24 15 10 6 1 356 355 349 352 336 348 353 344 349 349
230 234 248 257 254 241 233 231 223 245 267 308 299 295 301 306 309 306 307 310 313 316 316 318 327 330 331 347 19 1 359 5 355 340 346 356 351 343 339 344 347 342 333 328
241 306 265 292 265 263 273 299 4 297 267 280 277 286 300 309 311 311 313 311 314 314 314 331 338 339 342 338 359 5 342 334 330 350 5 13 348 350 355 359 344 334 325 322
281 290 334 330 304 347 21 15 293 270 288 291 298 316 327 323 318 317 317 321 323 332 342 352 358 12 40 44 42 9 349 338 339 343 339 345 354 339 341 342 338 332 331 331
300 289 327 298 24 93 213 263 285 305 313 319 325 328 324 323 325 323 322 321 352 14 24 38 54 48 34 17 6 357 339 341 331 315 305 311 328 335 335 328 330 336 343 348
303 291 253 205 258 249 263 268 280 304 317 321 321 327 331 331 331 330 335 30 38 52 62 68 43 30 18 9 358 348 351 358 346 345 309 317 322 333 329 336 345 349 358 8
274 267 257 256 254 256 269 288 302 316 323 322 328 332 335 337 336 349 31 51 64 70 71 36 14 10 2 8 356 337 353 349 353 22 36 11 352 347 342 346 354 6 19 25